Content
SEND FEEDBACK

Daily
Averages
Monthly
Summary
United States of America

SOUTH LAKE TAHOE, CALIFORNIA


Home > North America > United States > California
Elevation: 1908 meters     Latitude: 38 53N     Longitude: 119 59W

WEATHER
 
SELECT A DAY
Number of Records: 174,603;   Date Range: 1/1/95 - 9/16/14
 
SHARE

PRINT THIS DATA

[ ← Previous Day ]
WEATHER ALMANAC - 3 JANUARY, 2013
[ Next Day → ]
[ °F ]   °C
Weather ElementAverageHighLow
Temperature-7.5 °C7.2 °C (1:53 pm) (4:53 am)
Dewpoint-12.6 °C-4.4 °C (3:53 pm)-21.1 °C (4:53 am)
Humidity70.1 %81 % (9:53 am)31 % (1:53 pm)
Barometer1028.1 hPa1031.8 hPa (7:53 pm)1024 hPa (1:53 pm)
Wind Speed4.5 km/h9.3 km/h (11:53 am)
Weather ElementAverage
Visibility15 km
Wind DirectionESE (107 °)

Weather ElementTotal
Precipitation---
Heating Degree Days23.6 (Base 18.3)
Averaged from 23 records on 3 January, 2013
WEATHER CONDITIONS BREAKOUT
WIND DIRECTION BREAKOUT
WEATHER BY HOUR - 3 JANUARY, 2013
[ °F ]   °C
Local TimeTemperatureDewpointHumidityBarometerVisibilityWind DirectionWind SpeedGust SpeedPrecipitationEventsConditions
1:53 AM-14.4 °C-17.2 °C80 %1024.7 hPa14.5 kmCalmClear
2:53 AM-15 °C-18.3 °C76 %1024.4 hPa12.9 kmCalmClear
3:53 AM-15.6 °C-18.3 °C80 %1026.4 hPa12.9 kmCalmClear
4:53 AM-17.8 °C-21.1 °C76 %1028.1 hPa14.5 kmSouth (190°)7.4 km/hClear
5:53 AM-16.7 °C-20 °C76 %1028.8 hPa16.1 kmSSW (210°)7.4 km/hClear
6:53 AM-17.8 °C-21.1 °C76 %1030.5 hPa16.1 kmSouth (190°)5.6 km/hClear
7:53 AM-17.2 °C-20 °C79 %1030.5 hPa12.9 kmSouth (190°)7.4 km/hClear
8:53 AM-15 °C-17.8 °C80 %1030.5 hPa12.9 kmSouth (190°)5.6 km/hClear
9:53 AM-8.3 °C-11.1 °C81 %1029.5 hPa16.1 kmSouth (180°)7.4 km/hClear
10:53 AM-1.7 °C-8.9 °C58 %1027.4 hPa16.1 kmCalmClear
11:53 AM3.9 °C-6.1 °C49 %1025.4 hPa16.1 kmNE (40°)9.3 km/hClear
12:53 PM5 °C-8.3 °C38 %1025.4 hPa16.1 kmNNE (20°)5.6 km/hClear
1:53 PM7.2 °C-8.9 °C31 %1024 hPa16.1 kmNE (40°)5.6 km/hClear
2:53 PM5.6 °C-5 °C47 %1025.1 hPa16.1 kmNorth (10°)5.6 km/hClear
3:53 PM1.1 °C-4.4 °C67 %1027.1 hPa16.1 kmCalmClear
4:53 PM-3.9 °C-7.2 °C78 %1029.8 hPa16.1 kmCalmClear
5:53 PM-4.4 °C-7.8 °C77 %1030.1 hPa16.1 kmSSW (200°)5.6 km/hClear
6:53 PM-3.9 °C-8.3 °C72 %1029.8 hPa16.1 kmWSW (240°)5.6 km/hClear
7:53 PM-7.8 °C-10.6 °C81 %1031.8 hPa16.1 kmCalmClear
8:53 PM-8.3 °C-11.7 °C77 %1031.8 hPa16.1 kmSSW (200°)7.4 km/hClear
9:53 PM-8.3 °C-11.7 °C77 %1029.8 hPa14.5 kmSouth (180°)5.6 km/hClear
10:53 PM-9.4 °C-12.8 °C77 %1028.1 hPa12.9 kmSouth (190°)5.6 km/hClear
11:53 PM-10 °C-12.8 °C80 %1026.8 hPa11.3 kmSouth (190°)5.6 km/hClear
Hourly data recorded from KTVL, located 0 kilometers away from South Lake Tahoe, California







STORIES FROM OUR PARTNERS